WetterOnline ( http://www.wetteronline.de )

Wetter aktuell Ueckermünde

Aktuelles Wetter: Ueckermünde (7m)

6-stündlich | Neueste Meldungen
Ortszeit Temperatur Wetter
Fr, 20.04. 2:00 11.8° C wolkig
Do, 19.04. 20:00 14.9° C wolkig
Do, 19.04. 14:00 19.3° C fast wolkenlos
Do, 19.04. 8:00 12.1° C leicht bewölkt
Do, 19.04. 2:00 10.8° C fast wolkenlos
Mi, 18.04. 20:00 15.8° C wolkenlos
Mi, 18.04. 14:00 21.3° C wolkenlos
Mi, 18.04. 8:00 9.2° C wolkenlos
Ortszeit Temperatur Wetter
Fr, 20.04. 3:00 9.9° C wolkig
Fr, 20.04. 2:50 9.9° C wolkig
Fr, 20.04. 2:40 10.0° C wolkig
Fr, 20.04. 2:30 12.6° C wolkig
Fr, 20.04. 2:20 12.6° C wolkig
Fr, 20.04. 2:10 12.4° C wolkig
Fr, 20.04. 2:00 11.8° C wolkig
Fr, 20.04. 1:30 9.0° C -
Fr, 20.04. 1:00 9.2° C -
Fr, 20.04. 0:30 10.1° C -
Fr, 20.04. 0:00 10.2° C Nebel
Ortszeit Relative Feuchte Sichtweite
Fr, 20.04. 2:00 99% 23 km
Do, 19.04. 20:00 83% 27 km
Do, 19.04. 14:00 67% 24 km
Do, 19.04. 8:00 92% 7 km
Do, 19.04. 2:00 94% 19 km
Mi, 18.04. 20:00 74% 22 km
Mi, 18.04. 14:00 48% 12 km
Mi, 18.04. 8:00 82% 20 km
Ortszeit Relative Feuchte Sichtweite
Fr, 20.04. 3:00 99% 11 km
Fr, 20.04. 2:50 99% -
Fr, 20.04. 2:40 95% -
Fr, 20.04. 2:30 91% 30 km
Fr, 20.04. 2:20 91% -
Fr, 20.04. 2:10 93% -
Fr, 20.04. 2:00 99% 23 km
Fr, 20.04. 1:30 100% 7 km
Fr, 20.04. 1:00 100% 10 km
Fr, 20.04. 0:30 100% 8 km
Fr, 20.04. 0:00 100% 0.2 km
Ortszeit Niederschlagsmenge Niederschlagsart
Fr, 20.04. 2:00 0.0 l/m2 in 6 Std. -
Do, 19.04. 20:00 0.0 l/m2 in 12 Std. -
Do, 19.04. 14:00 0.0 l/m2 in 6 Std. -
Do, 19.04. 8:00 0.0 l/m2 in 12 Std. -
Do, 19.04. 2:00 0.0 l/m2 in 6 Std. -
Mi, 18.04. 20:00 0.0 l/m2 in 12 Std. -
Mi, 18.04. 14:00 0.0 l/m2 in 6 Std. -
Mi, 18.04. 8:00 0.0 l/m2 in 12 Std. -
Ortszeit Niederschlagsmenge Niederschlagsart
Fr, 20.04. 3:00 0.0 l/m2 in 1 Std. -
Fr, 20.04. 2:50 keine Meldung -
Fr, 20.04. 2:40 keine Meldung -
Fr, 20.04. 2:30 0.0 l/m2 in 1 Std. -
Fr, 20.04. 2:20 keine Meldung -
Fr, 20.04. 2:10 keine Meldung -
Fr, 20.04. 2:00 0.0 l/m2 in 1 Std. -
Fr, 20.04. 1:30 0.0 l/m2 in 1 Std. -
Fr, 20.04. 1:00 0.0 l/m2 in 1 Std. -
Fr, 20.04. 0:30 0.0 l/m2 in 1 Std. -
Fr, 20.04. 0:00 0.0 l/m2 in 1 Std. -
Ortszeit Stärke Spitze Richtung
km/h Bft. km/h Grad Sektor
Fr, 20.04. 2:00 7 2 11 120° SO
Do, 19.04. 20:00 4 1 22 70° O
Do, 19.04. 14:00 9 2 17 50° NO
Do, 19.04. 8:00 4 1 7 240° SW
Do, 19.04. 2:00 6 1 9 190° S
Mi, 18.04. 20:00 7 2 29 360° N
Mi, 18.04. 14:00 13 3 24 250° W
Mi, 18.04. 8:00 13 3 19 190° S
Ortszeit Stärke Spitze Richtung
km/h Bft. km/h Grad Sektor
Fr, 20.04. 3:00 4 1 14 220° SW
Fr, 20.04. 2:50 4 1 - 220° SW
Fr, 20.04. 2:40 6 1 - 190° S
Fr, 20.04. 2:30 9 2 15 140° SO
Fr, 20.04. 2:20 9 2 - 140° SO
Fr, 20.04. 2:10 7 2 - 130° SO
Fr, 20.04. 2:00 7 2 11 120° SO
Fr, 20.04. 1:30 6 1 9 130° SO
Fr, 20.04. 1:00 4 1 7 170° S
Fr, 20.04. 0:30 4 1 4 100° O
Fr, 20.04. 0:00 0 0 4 - -
Ortszeit Untergrenze Bedeckung Gattung
total tief tief mittel hoch
Fr, 20.04. 2:00 10500 m 8/8 0/8 - - -
Do, 19.04. 20:00 9000 m 8/8 0/8 - - -
Do, 19.04. 14:00 2400 m 1/8 1/8 - - -
Do, 19.04. 8:00 3300 m 2/8 2/8 - - -
Do, 19.04. 2:00 3600 m 1/8 1/8 - - -
Mi, 18.04. 20:00 - 0/8 0/8 - - -
Mi, 18.04. 14:00 - 0/8 0/8 - - -
Mi, 18.04. 8:00 - 0/8 0/8 - - -
Ortszeit Bedeckungsgrad in Achtel und Wolkenuntergrenze
Fr, 20.04. 3:00 7(10500m) 8(12000m)
Fr, 20.04. 2:50 7(10500m) 8(12000m)
Fr, 20.04. 2:40 6(10500m) 7(10500m) 8(12000m)
Fr, 20.04. 2:30 7(10500m) 8(10500m) 8(12000m)
Fr, 20.04. 2:20 7(10500m) 8(10500m) 8(12000m)
Fr, 20.04. 2:10 8(10500m) 8(10500m) 8(12000m)
Fr, 20.04. 2:00 6(10500m) 7(10500m) 8(12000m)
Fr, 20.04. 1:30 -
Fr, 20.04. 1:00 -
Fr, 20.04. 0:30 -
Fr, 20.04. 0:00 7(10500m) 8(12000m)
Ortszeit Luftdruck NN (hPa) Tendenz (hPa in 3 Std.)
Fr, 20.04. 2:00 1029 - 1,0
Do, 19.04. 20:00 1030 - 0,8
Do, 19.04. 14:00 1032 - 0,5
Do, 19.04. 8:00 1032 + 0,5
Do, 19.04. 2:00 1032 + 0,3
Mi, 18.04. 20:00 1031 + 0,6
Mi, 18.04. 14:00 1032 - 0,3
Mi, 18.04. 8:00 1032 + 0,9
Ortszeit Luftdruck NN (hPa) Tendenz (hPa in 3 Std.)
Fr, 20.04. 3:00 1028 - 1,2
Fr, 20.04. 2:50 1028 keine Meldung
Fr, 20.04. 2:40 1028 keine Meldung
Fr, 20.04. 2:30 1028 - 1,2
Fr, 20.04. 2:20 1028 keine Meldung
Fr, 20.04. 2:10 1028 keine Meldung
Fr, 20.04. 2:00 1029 - 1,0
Fr, 20.04. 1:30 1029 - 0,9
Fr, 20.04. 1:00 1029 - 1,0
Fr, 20.04. 0:30 1029 - 0,9
Fr, 20.04. 0:00 1030 - 0,6
Ortszeit Schneehöhe (cm)
Fr, 20.04. 2:00 0
Do, 19.04. 20:00 0
Do, 19.04. 14:00 0
Do, 19.04. 8:00 0
Do, 19.04. 2:00 0
Mi, 18.04. 20:00 0
Mi, 18.04. 14:00 0
Mi, 18.04. 8:00 0
Ortszeit Schneehöhe (cm)
Fr, 20.04. 3:00 0
Fr, 20.04. 2:50 0
Fr, 20.04. 2:40 0
Fr, 20.04. 2:30 0
Fr, 20.04. 2:20 0
Fr, 20.04. 2:10 0
Fr, 20.04. 2:00 0
Fr, 20.04. 1:30 0
Fr, 20.04. 1:00 0
Fr, 20.04. 0:30 0
Fr, 20.04. 0:00 0
Link zu dieser Seite / Seite empfehlen

Das Wetter in ...